SKYNET 5A

Last updated on Thu Nov 21 2024 00:02:40 GMT+0000 (Coordinated Universal Time)

1 30794U 07007B 24325.54453970 -.00000269 00000+0 00000+0 0 9996 2 30794 3.8323 80.6399 0004478 173.3501 97.2948 1.00269224 64940
UTC large
Height (km)
Speed (km/s)
/
Latitude / Longitude
Inclination (degrees)
Orbital Period (minutes)
Azimuth
Elevation
Range (km)
Doppler Factor

Next 0 passes for location: London (51.5072 / 0.1276)

Sorry there are no passes over London.